Regional Weather Roundup
Issued by NWS

Home | Current Version | Previous Version | Graphics & Text | Print | Product List | Glossary On
Versions: 1 2 3 4 5 6 7 8 9 10 11 12 13 14 15 16 17 18 19 20 21 22 23 24 25 26 27
000
ASUS45 KBOU 212207
RWRCO

WEATHER ROUNDUP FOR COLORADO
NATIONAL WEATHER SERVICE DENVER/BOULDER CO
400 PM MDT TUE MAR 21 2017

NOTE: "FAIR" INDICATES FEW OR NO CLOUDS BELOW 12000 FEET WITH NO
SIGNIFICANT WEATHER AND/OR OBSTRUCTIONS TO VISIBILITY.

COZ001>005-013-030-031-212300-
...NORTHWEST COLORADO...

CITY           SKY/WX    TMP DP  RH WIND       PRES   REMARKS
CRAIG          FAIR      67  21  17 W15G22    30.04F
HAYDEN         FAIR      64  19  17 SW13G18   30.06F
MEEKER         FAIR      67  24  19 SW16      30.05F
MOUNT WERNER   NOT AVBL
STEAMBOAT SPGS PTSUNNY   58  23  25 SW7       30.09S
WALDEN         NOT AVBL
$$

COZ006>008-011-212300-
...WEST CENTRAL VALLEYS...

CITY           SKY/WX    TMP DP  RH WIND       PRES   REMARKS
GRAND JUNCTION FAIR      73  22  14 S15       29.99F
MONTROSE       FAIR      72  18  13 SW18G31   30.09F
EAGLE          SUNNY     68  21  17 SW20G26   30.11R
RIFLE          FAIR      71  22  15 SW9G17    30.02F
DELTA          FAIR      73  27  17 NE3       30.04F
NUCLA          FAIR      70  19  14 SW15G21   30.12F
$$

COZ017>023-064>068-212300-
...SOUTHWEST COLORADO...

CITY           SKY/WX    TMP DP  RH WIND       PRES   REMARKS
DURANGO        FAIR      67  24  19 W7        30.17F
CORTEZ         FAIR      71  27  19 S9        30.11F
PAGOSA SPRINGS FAIR      63  21  20 W10G16    30.22F
TELLURIDE      CLOUDY    56  21  26 S9        30.28S
WOLF CREEK PAS FAIR      39  23  52 S26G36    30.45S
$$

COZ009-010-012-014-032>034-037-058>063-212300-
...CENTRAL COLORADO...

CITY           SKY/WX    TMP DP  RH WIND       PRES   REMARKS
ASPEN          FAIR      62  15  16 S16G25    30.15F
BUENA VISTA    FAIR      65  11  12 S12G17    30.16F
COPPER MTN     NOT AVBL
BERTHOUD PASS  CLOUDY    36  27  69 W10G25    30.38R
COTTONWOOD PAS FAIR      55   7  14 SW13G25   30.26F
GUNNISON       FAIR      50  31  48 N9        30.20F
KREMMLING      FAIR      66  19  16 W18G24    30.12S
LEADVILLE      FAIR      48  14  25 S13G21    30.25F
MONARCH PASS   CLOUDY    43  18  36 W22       30.48F
SALIDA         FAIR      68  14  12 W12G17    30.21F
SUNLIGHT       NOT AVBL
WILKERSON PASS PTSUNNY   45  16  31 SW6       30.36F
$$

COZ069>075-212300-
...SAN LUIS VALLEY/SANGRE DE CRISTO MOUNTAINS...

CITY           SKY/WX    TMP DP  RH WIND       PRES   REMARKS
ALAMOSA        FAIR      69  19  15 SW18G24   30.18F
LA VETA PASS   FAIR      52  18  25 S14G32    30.33F
SAGUACHE       PTSUNNY   63  18  17 W14G21    30.17F
$$

COZ035-036-038>040-212300-
...NORTHERN COLORADO FRONT RANGE...

CITY           SKY/WX    TMP DP  RH WIND       PRES   REMARKS
DENVER INTL AP CLOUDY    60  35  39 N21       30.06F
DMNS CITY PARK   N/A     59  33  38 N7G14     30.08S
AURORA         PTSUNNY   57  35  42 NW8       30.10R
FRONT RANGE AP CLOUDY    64  36  34 N14G23    30.07R
ERIE MUNI ARPT FAIR      59  31  35 N8G16     30.08F
BOULDER MUN AP FAIR      59  32  36 N7        30.08F
CENTENNIAL     CLOUDY    58  33  39 W7        30.09R
BROOMFIELD     PTSUNNY   57  32  38 N13       30.09F
FORT COLLINS   FAIR      63  37  38 NE10      30.09F
LONGMONT       FAIR      64  34  32 N7        30.10F
$$

COZ041-046-047-076>085-087-088-212300-
...PIKES PEAK/PALMER DIVIDE AND SOUTHERN FOOTHILLS...

CITY           SKY/WX    TMP DP  RH WIND       PRES   REMARKS
COLO. SPRINGS  PTSUNNY   58  33  39 S16       30.14F
A. F. ACADEMY  FAIR      58  33  38 S16G23    30.13F
SCHRIEVER AFB  FAIR      57  33  40 S16       30.15F
ELLICOTT         N/A    N/A N/A N/A S13G21    30.13F
FALCON         FAIR      56  32  40 S16G22    30.17F
FORT CARSON    FAIR      59  35  39 SE17      30.13S
LIMON          FAIR      61  35  37 SE24      30.12F
MONUMENT HILL  LGT RAIN  52  32  46 S21G31    30.16R
TRINIDAD       FAIR      69  31  24 N6        30.11S
$$

COZ042>045-048>051-090-091-212300-
...NORTHEAST COLORADO...

CITY           SKY/WX    TMP DP  RH WIND       PRES   REMARKS
GREELEY ARPT   FAIR      66  37  34 E15       30.09
AKRON          FAIR      60  36  40 SE25G32   30.11F
BURLINGTON     FAIR      60  36  40 SE17G24   30.16S
WRAY           FAIR      61  32  33 SE22G29   30.16F
STERLING       FAIR      61  37  41 SE16      30.12S
HOLYOKE        FAIR      59  28  31 SE18G26   30.18S
FORT MORGAN    PTSUNNY   63  32  32 E15G26    30.10S
$$

COZ086-089-092>099-212300-
...SOUTHEAST COLORADO...

CITY           SKY/WX    TMP DP  RH WIND       PRES   REMARKS
PUEBLO         FAIR      66  36  32 SE13G21   30.09F
LA JUNTA       FAIR      68  37  32 SE23      30.08F
LAMAR          FAIR      64  38  38 E16       30.10F
SPRINGFIELD      N/A     63  39  41 E18G25    30.13F
$$




USA.gov is the U.S. government's official web portal to all federal, state and local government web resources and services.